Torna al catalogo

ORBCOMM FM 110

AttivoComunicazioniLEO
NORAD 41182·PAYLOAD·🇺🇸 United States

Lanciato Dec 22, 2015 da Cape Canaveral Space Force Station

Loading…

Prossimi Passaggi (prossime 24 ore)

TLE

AggiornatoSource: Space-Track

Epoca: Sep 14, 2026, 13:01 UTC

1 41182U 15081D   26257.54292204  .00000360  00000-0  11207-3 0  9994
2 41182  47.0022 298.9046 0002126 149.5865 210.5145 14.58988631570676

Traccia ORBCOMM FM 110 in tempo reale con AllMySat

Download on the App Store